Location: Banff
(51.1667°N, 115.5667°W)
Time: 11:23:42
(UTC+00:00)

A-11 Canister half - Pass Details

Date: 27 November 2020
Orbit: 1524 x 1684 km, 47.3° (Epoch: 20 January)

Event Time Altitude Azimuth Distance (km) Brightness Sun altitude
Rises 11:23:07 0° 168° (SSE) 4,926 11.7 -36.1°
Reaches altitude 10° 11:29:25 10° 140° (SE) 3,939 11.4 -35.2°
Maximum altitude 11:32:23 12° 122° (ESE) 3,803 11.5 -34.7°
Drops below altitude 10° 11:35:20 10° 105° (ESE) 3,928 11.8 -34.3°
Sets 11:41:32 0° 76° (ENE) 4,893 12.7 -33.3°
